Tracking 34142 objects as of 18-May-2026
HD Live streaming from Space Station
objects crossing your sky now

AETHER-11

Track AETHER-11 now!
10-day predictions


NORAD ID: 67382
Int'l Code: 2026-004V
Perigee: 608.0 km
Apogee: 613.2 km
Inclination: 97.8 °
Period: 96.8 minutes
Semi major axis: 6981 km
RCS: Unknown
Launch date: January 11, 2026
Source: Canada (CA)
Launch site: AIR FORCE WESTERN TEST RANGE (AFWTR)
Your satellite tracking list
Your tracking list is empty




NASA's NSSDC Master Catalog

Two Line Element Set (TLE):
1 67382U 26004V   26137.75731823  .00000404  00000-0  49686-4 0  9998
2 67382  97.8035 136.9267 0003754 199.5610 160.5463 14.88225182 18762
Source of the keplerian elements: AFSPC